Starlink 5636

operational
NORAD ID: 55454 Int'l Des: 2023-015 Owner: SPXS Country: US Constellation: starlink
LEOCIRCULAR

Starlink 5636について

説明を読み込み中...

リアルタイム位置

3D地球を読み込み中...

次回通過

高度履歴

Altitude vs Time

uPlot chart will show altitude changes over time

軌道要素

1 55454U 23015F 26033.80230848 .00002974 00000-0 23508-3 0 9994
2 55454 43.0024 155.7543 0001151 271.1714 88.8997 15.02539802165500
Epoch: Feb 2, 2026 • Age: 18 hours

現在のステータス

高度 563.0 km
速度 7.59 km/s
衛星直下点 43.02°N, 95.41°W
打ち上げ日 Feb 2, 2023
運用期間 3 years
タイプ internet

技術仕様

分類 Payload
質量 305.00 kg
乾燥質量 290.00 kg
総質量 305.00 kg
長さ 0.20 m
直径 2.80 m
スパン 9.00 m
形状 Box + pan
製造者 SPXS
バスタイプ Starlink
フェーズステータス In Orbit
所有者/国 SPXS/US

大規模コンステレーション

Loading constellations...